Location: Izdebno
(52.6670°N, 16.2170°E)
Time: 18:24:09
(UTC+02:00)

Transit 4A - Pass Details

Date: 25 February 2024
Orbit: 871 x 972 km, 66.8° (Epoch: 21 April)

Event Time Altitude Azimuth Distance (km) Brightness Sun altitude
Rises 03:07:57 0° 245° (WSW) 3,590 - -33.5°
Reaches altitude 10° 03:10:39 10° 252° (WSW) 2,633 - -33.2°
Maximum altitude 03:16:27 43° 323° (NW) 1,257 - -32.5°
Exits shadow 03:17:39 39° 353° (N) 1,341 8.8 -32.3°
Drops below altitude 10° 03:22:08 10° 35° (NE) 2,577 10.9 -31.7°
Sets 03:24:46 0° 42° (NE) 3,507 11.9 -31.4°
